RH
48 51 49 36 27 22 14 10 11 11 10 12 12 11 9 8 6 3 3 3 3 3 3 3 2 2 3 3 4 5 5 5 5 5 4 4 3 4 4 4 4 5 5 5 6 6 6 7 8 9 9 10 9 11 14 15 17 21 23 17 13 15 17 18 22 25 26 28 32 34 32 27 19 14 12 11 11 10 10 9 8 8 9 11 15 18 21 24
17 28 33 24 15 13 12 12 13 10 11 13 13 11 7 5 4 3 3 3 3 3 3 3 2 3 4 5 6 5 5 5 4 3 3 2 2 3 3 4 4 4 4 4 3 3 3 4 5 6 8 9 10 12 13 14 15 16 17 16 15 16 17 18 21 23 27 30 30 25 19 13 10 10 10 11 11 11 11 11 10 12 14 17 20 22 25 27
4 14 20 17 14 15 14 14 12 10 12 13 13 11 5 3 3 3 3 3 3 3 3 3 4 5 4 6 7 5 4 3 2 2 2 2 2 3 3 3 3 3 3 2 2 2 2 3 4 4 6 8 9 12 12 13 15 17 18 19 19 19 20 19 21 26 28 26 20 15 13 13 13 14 14 13 12 13 14 13 12 14 18 21 24 26 28 30
6 14 17 18 20 18 14 13 12 11 13 14 14 10 5 3 3 3 3 3 3 4 4 5 5 5 4 5 6 7 6 3 2 2 2 2 3 3 3 3 3 3 2 3 2 2 2 3 3 3 5 7 8 10 12 13 15 15 16 18 19 17 18 17 20 23 21 16 12 13 19 21 21 21 18 17 16 16 17 16 14 14 16 18 22 28 31 34
12 19 18 19 19 14 12 14 13 14 14 14 13 8 5 4 4 4 4 4 4 5 6 5 5 4 3 3 3 6 7 4 2 2 2 3 3 3 3 3 3 3 3 3 3 3 3 3 3 3 4 5 8 9 11 14 15 15 14 15 16 16 16 16 16 16 14 13 14 18 25 26 25 23 20 18 19 19 20 20 18 17 18 18 20 26 34 38
17 19 17 17 15 12 13 15 14 13 12 11 9 6 4 4 5 5 5 6 6 6 5 5 4 3 2 2 2 3 4 4 2 3 3 3 3 3 4 3 3 4 3 3 4 4 3 4 3 3 4 4 7 9 10 12 12 12 12 12 14 14 12 12 12 13 14 16 20 25 26 26 25 23 21 19 19 21 24 23 20 22 24 23 23 26 33 41
18 19 16 14 11 13 16 15 10 7 7 7 6 4 5 6 7 7 7 6 6 5 5 4 3 2 2 2 2 2 3 3 3 3 3 3 4 4 4 4 4 4 5 5 5 5 4 5 4 4 4 5 8 9 8 8 7 8 9 11 14 13 11 12 14 15 16 18 22 24 23 24 26 23 19 17 18 24 29 25 21 26 29 28 29 29 32 40
18 17 13 10 11 15 17 11 5 3 4 4 4 5 7 7 7 7 7 6 5 5 3 3 3 2 2 2 2 3 3 3 3 3 3 4 4 4 5 5 6 5 6 6 5 6 6 5 5 6 6 6 8 7 6 7 7 8 10 14 15 13 13 14 15 19 20 18 16 17 20 23 24 20 14 12 17 25 28 24 25 31 34 35 36 36 38 40
17 14 10 8 12 17 14 6 2 3 4 4 6 7 7 6 6 6 6 5 4 3 2 2 2 2 3 3 3 3 3 3 3 4 4 5 5 6 6 6 7 7 6 6 6 6 6 7 6 6 6 7 8 7 7 8 9 11 13 14 13 12 14 14 17 23 23 16 11 13 16 18 18 16 13 14 18 23 24 27 32 35 37 39 40 41 42 41
15 13 9 8 13 16 10 3 3 4 5 6 7 7 6 5 4 4 5 4 3 2 2 2 2 2 3 3 3 3 4 4 4 5 5 5 6 6 7 7 7 7 7 7 6 7 7 7 6 6 6 7 8 8 9 10 11 11 11 13 14 15 17 18 22 25 19 12 11 13 15 17 19 18 16 17 19 23 27 32 34 34 39 42 41 43 43 44
14 12 9 9 13 12 5 2 4 6 7 8 7 7 6 4 3 3 4 3 2 3 2 3 3 3 3 3 4 3 4 5 5 6 6 7 7 7 7 7 7 7 7 7 7 7 6 6 6 6 5 7 8 8 11 13 14 14 14 16 15 14 16 20 22 18 12 11 13 15 17 20 22 19 17 19 21 23 26 28 29 33 41 43 43 46 48 51
12 10 9 10 10 5 3 5 6 7 8 7 6 6 5 4 3 2 3 3 3 3 3 3 3 3 4 4 3 4 5 6 6 7 7 7 7 7 7 6 7 7 6 7 7 7 6 6 6 6 5 6 6 8 12 13 15 16 19 21 17 14 16 16 15 11 11 13 15 17 17 20 22 19 19 21 22 22 23 24 28 36 42 44 48 53 56 57
9 9 8 7 5 3 5 7 8 8 7 5 4 4 4 3 2 2 2 3 3 3 3 3 3 4 5 4 4 5 6 7 7 7 7 8 8 7 7 7 7 7 7 7 7 7 7 6 6 6 6 6 5 8 11 11 11 14 19 22 20 16 13 11 10 11 13 14 15 17 18 19 20 20 22 24 24 23 24 29 37 44 46 50 55 58 61 61
7 7 5 4 4 6 8 9 8 7 6 4 3 3 3 3 3 3 3 4 4 4 4 4 4 4 5 5 6 6 7 8 7 8 8 8 8 7 7 7 7 7 7 7 8 8 7 7 7 6 6 6 6 7 8 7 7 10 15 16 14 12 10 10 11 12 13 14 14 17 18 18 19 22 25 26 24 23 28 38 47 51 53 57 61 62 64 64
6 4 4 5 7 9 9 8 7 6 5 4 3 3 4 4 4 5 5 5 5 5 5 6 5 5 6 6 7 8 8 8 8 8 8 8 8 8 7 7 8 8 8 8 8 8 8 8 7 7 7 6 6 6 6 6 7 10 12 10 10 11 11 11 12 13 14 15 15 17 18 18 20 23 25 25 23 25 36 47 51 54 59 63 64 65 67 68
5 5 7 9 10 10 7 6 5 4 4 3 4 4 4 4 4 4 4 5 6 6 7 8 7 6 7 7 8 8 8 8 8 8 8 8 8 8 8 8 9 8 9 9 9 9 9 8 8 8 8 8 8 7 7 8 10 11 11 11 12 12 13 12 13 15 15 16 17 19 20 20 22 25 25 25 25 30 43 52 54 59 64 66 69 70 70 71
6 8 11 11 9 8 5 4 3 3 3 3 4 4 4 4 4 4 5 5 6 7 7 9 10 9 8 8 8 8 8 9 9 9 9 9 9 8 8 9 9 9 9 10 10 10 10 9 9 9 9 9 9 9 10 12 12 13 14 15 15 14 14 14 14 16 17 18 19 20 22 23 25 25 25 27 29 36 47 55 59 64 68 70 73 73 72 72
9 11 11 9 8 6 6 5 3 4 4 4 4 4 4 4 5 5 5 6 7 8 8 9 11 10 8 8 9 8 8 9 9 10 9 9 9 8 9 10 10 10 10 10 11 11 10 10 10 10 11 10 11 12 14 15 16 16 17 16 15 14 14 15 16 17 18 19 21 22 23 25 26 25 27 32 36 41 50 58 62 67 72 74 74 73 72 71
10 10 9 7 7 7 6 4 4 4 4 4 4 4 5 5 6 6 7 8 8 8 9 9 10 9 9 9 9 9 9 10 10 10 10 9 9 9 10 10 10 11 11 11 11 11 11 10 11 12 11 12 13 15 17 18 19 19 18 16 15 14 15 16 17 19 20 21 22 24 25 26 27 28 33 39 42 45 52 60 66 72 76 76 75 73 72 71
9 8 8 8 8 7 6 4 4 4 4 5 5 5 6 7 8 8 9 9 8 9 10 10 10 10 10 10 10 10 10 10 10 11 10 9 10 10 11 11 11 11 11 11 11 11 11 11 12 12 13 14 15 17 20 20 21 22 20 16 14 15 16 17 18 20 22 23 24 25 27 27 29 34 40 44 45 47 54 63 71 76 77 77 75 72 71 72
7 6 6 7 8 7 5 4 4 4 5 5 5 7 7 8 8 9 9 8 9 10 11 11 11 11 11 11 11 11 11 11 10 11 10 10 11 11 11 11 11 12 11 12 12 11 12 12 13 13 14 15 16 19 19 20 22 23 19 15 15 16 17 18 20 22 23 27 28 27 29 33 38 41 42 44 46 51 59 69 76 77 76 74 71 70 71 73
5 4 5 6 7 6 4 4 5 5 5 6 7 9 9 9 8 9 9 9 10 11 11 12 12 12 11 11 12 11 11 11 11 11 11 11 11 11 11 11 11 12 12 12 12 12 13 13 14 14 14 15 17 18 19 21 22 21 18 16 16 17 18 20 21 23 27 31 30 29 35 41 42 40 40 44 49 58 66 71 75 75 72 70 67 69 72 74
5 5 5 5 5 4 4 6 7 8 8 8 9 11 11 10 9 10 10 9 11 11 12 12 12 12 11 11 12 12 12 11 11 12 11 11 11 10 11 11 12 12 12 12 12 13 13 14 14 13 14 15 16 17 19 20 19 19 17 16 17 19 21 24 24 25 29 32 32 35 41 43 41 37 38 45 52 60 68 70 71 69 68 67 68 69 72 75
5 5 5 4 4 5 6 8 9 9 9 9 10 10 11 11 11 12 10 9 10 11 12 13 12 12 12 12 12 13 12 11 12 12 11 11 11 10 10 11 12 12 13 13 13 13 14 15 15 14 15 16 16 17 17 18 18 18 17 18 20 19 23 27 26 27 30 32 35 39 42 38 37 40 42 47 55 62 68 71 68 66 66 68 68 70 74 77
4 4 4 4 5 6 8 10 9 9 9 9 10 9 9 11 12 12 10 9 10 11 12 13 13 12 12 13 12 12 12 11 12 11 11 12 11 11 11 11 12 12 13 13 13 15 15 15 15 14 16 17 17 16 17 19 19 19 19 20 20 21 25 26 28 32 33 34 34 37 50 49 37 40 45 47 54 61 66 68 67 67 67 68 71 72 76 78
5 4 5 5 7 8 10 11 10 10 10 10 11 9 9 11 13 14 12 10 10 11 12 12 13 12 12 13 12 12 12 11 11 12 12 11 11 11 12 12 12 12 14 14 14 15 15 16 15 16 18 18 18 17 19 21 20 20 20 20 22 24 27 27 31 35 34 37 33 32 54 61 43 39 44 45 53 58 61 63 63 65 67 70 73 74 77 80
5 6 7 8 10 11 11 11 10 11 10 10 10 10 11 12 14 16 14 13 13 12 13 14 14 13 13 13 13 12 12 12 12 12 12 11 12 12 13 14 13 13 14 14 15 15 16 16 16 19 20 18 18 19 21 22 22 22 20 22 24 25 29 32 33 35 34 37 35 30 43 56 48 42 42 42 48 51 53 59 60 62 68 72 75 77 80 84
8 9 10 11 12 11 11 10 10 10 10 9 8 9 12 13 15 16 13 15 15 13 14 14 14 15 15 14 13 13 13 13 12 12 11 11 13 13 13 14 14 14 14 15 16 16 17 17 18 21 21 19 19 21 23 24 23 22 22 25 27 28 32 34 33 35 36 38 39 34 39 51 49 40 40 43 43 44 48 55 58 63 70 73 77 83 86 89
11 11 11 11 11 10 10 9 9 10 10 9 7 8 12 13 14 13 11 14 15 13 15 15 15 16 16 15 14 13 13 13 13 13 12 12 13 13 14 14 14 14 15 16 17 17 17 18 21 22 21 20 20 23 25 24 23 23 25 27 28 30 31 34 37 36 37 45 45 37 39 52 53 41 42 47 45 46 51 56 62 68 74 79 84 89 90 88
11 11 11 10 10 9 9 9 9 9 8 9 8 9 11 15 14 10 12 15 14 14 15 15 16 16 16 15 13 13 13 13 13 14 14 14 14 14 14 15 15 16 18 18 18 19 18 20 22 22 21 21 23 25 25 24 24 24 27 30 29 30 31 35 37 33 42 53 46 38 39 50 59 49 42 47 50 52 56 64 74 78 82 88 91 90 86 82
11 11 10 9 9 9 8 8 8 7 7 8 10 11 12 13 11 10 14 16 14 14 16 16 17 16 15 14 13 13 13 12 13 14 13 14 15 14 14 15 16 18 19 17 18 19 19 21 23 22 21 22 23 24 24 25 25 26 30 32 32 33 33 38 40 40 53 59 45 40 41 48 61 52 43 50 55 55 60 70 82 88 90 92 90 86 82 80
11 10 9 8 7 6 6 6 6 6 7 9 11 14 14 12 11 13 16 15 14 14 15 16 17 15 15 15 14 13 13 13 13 14 14 15 16 15 15 17 17 19 19 18 19 19 20 22 23 22 21 23 24 24 26 27 27 30 30 32 44 52 51 55 56 52 57 56 46 43 47 54 55 46 45 51 52 57 65 73 84 89 89 88 86 82 80 83
9 8 7 6 5 4 4 4 5 6 7 9 11 13 12 12 14 16 16 15 15 15 15 16 16 16 15 15 15 13 13 14 14 15 16 16 17 16 17 19 19 20 22 21 22 21 21 23 22 23 22 23 26 25 26 27 29 34 32 35 52 66 74 76 68 61 61 54 46 46 55 60 50 44 50 52 54 62 67 73 81 84 84 84 81 81 85 89
7 6 5 4 4 4 4 5 5 6 7 8 10 10 10 12 15 17 17 16 16 16 16 17 16 17 16 16 16 14 13 15 15 16 17 16 18 18 19 20 20 21 22 23 26 26 27 28 24 23 24 25 28 27 28 29 30 34 34 37 46 54 70 79 70 68 69 61 54 54 60 62 52 50 55 54 57 61 67 77 81 79 81 81 79 82 88 89
5 5 4 4 4 4 5 7 6 6 8 8 8 9 10 13 15 16 17 17 17 16 17 17 16 17 17 16 17 15 15 16 16 17 17 17 19 20 20 21 21 22 23 25 29 28 29 29 24 25 26 27 29 28 30 32 31 34 34 38 45 46 53 62 61 60 63 66 65 58 56 56 51 51 53 55 59 64 76 83 81 81 80 77 79 81 82 83
4 4 4 4 5 5 6 7 7 8 8 9 9 9 11 13 15 16 17 17 17 16 17 18 16 16 17 16 17 17 16 17 17 17 17 18 21 23 22 21 22 23 24 27 31 32 31 27 24 27 28 29 31 30 32 34 33 34 36 39 44 46 49 59 61 54 58 73 71 57 54 52 50 54 55 59 67 74 81 83 82 83 80 80 83 82 82 80
5 5 5 5 6 7 7 7 8 8 8 9 9 10 12 13 15 15 16 17 17 16 17 17 16 16 17 16 17 18 17 17 18 18 18 19 22 24 23 21 22 24 25 28 31 33 34 28 25 28 30 30 32 32 34 36 36 36 40 41 43 48 50 57 66 65 70 80 68 52 54 56 57 61 63 68 76 79 83 84 84 85 89 92 90 86 80 61
6 6 6 6 7 8 8 8 8 8 9 9 9 11 13 13 15 16 16 17 17 17 16 16 16 16 17 17 17 17 17 18 18 18 20 20 22 25 24 22 23 25 26 28 30 31 35 33 28 28 31 31 33 35 35 37 39 40 41 43 48 55 56 61 76 84 85 85 70 55 56 57 57 61 68 77 80 81 85 86 89 95 99 96 89 76 52 33
8 7 7 7 8 9 8 8 9 9 9 9 10 11 13 14 15 16 16 17 16 17 17 17 17 17 17 18 17 18 17 18 19 19 20 21 22 24 24 22 24 25 26 28 30 31 36 40 35 29 31 32 33 37 37 37 41 43 45 46 49 54 60 68 75 77 82 88 82 71 63 57 58 66 74 79 80 82 85 89 97 101 97 87 71 44 25 38
8 8 8 8 8 8 8 8 9 9 9 10 10 12 13 15 16 16 17 17 16 17 17 17 17 17 17 17 17 18 18 19 20 20 21 22 22 23 24 24 24 25 26 27 29 31 35 42 41 32 31 35 37 39 40 41 44 47 49 50 51 56 59 64 64 62 75 87 85 84 78 63 62 71 74 76 79 81 86 95 100 96 86 65 36 21 34 58
8 7 7 8 8 8 8 8 9 9 9 10 11 12 14 15 16 16 17 17 17 17 16 16 16 16 16 17 17 17 17 19 19 20 21 22 22 23 23 24 24 25 27 27 29 32 34 42 44 36 33 35 38 40 41 44 48 50 50 49 55 60 60 72 77 65 68 79 80 90 94 74 63 69 72 75 79 84 90 96 94 82 61 30 17 34 51 54
8 7 7 7 8 8 8 8 9 10 10 10 12 13 14 15 16 16 16 17 17 16 15 15 15 15 16 16 17 17 17 18 19 20 21 21 22 23 23 25 25 26 28 28 29 32 33 39 43 39 36 36 39 40 41 44 47 48 49 50 55 58 62 81 90 76 75 81 77 85 92 74 62 68 73 76 81 85 89 89 81 60 29 14 28 43 41 48
8 7 7 8 8 8 9 9 10 10 10 11 12 14 14 15 16 16 16 16 16 16 16 15 14 15 16 16 17 17 17 18 19 20 21 22 23 23 24 25 25 27 29 29 30 32 33 36 39 38 35 35 37 40 42 45 48 48 50 53 55 59 63 68 72 76 86 87 82 92 92 72 63 70 75 77 82 85 84 78 61 33 13 20 34 31 36 67
7 7 7 8 8 8 9 10 10 10 10 11 13 14 15 16 16 16 16 16 16 16 16 15 15 15 16 16 17 17 18 19 20 20 21 22 23 24 24 25 26 28 30 30 32 34 34 36 40 43 47 46 45 46 47 48 51 51 53 55 58 59 60 59 64 77 85 83 88 102 95 75 70 74 75 78 83 82 76 58 33 18 18 27 27 23 42 79
7 7 7 8 9 9 9 10 10 10 10 11 13 14 15 16 16 16 16 16 15 15 15 15 15 15 16 17 17 18 19 19 20 21 22 22 23 24 25 26 27 29 30 32 34 36 37 39 42 48 57 62 62 58 54 53 54 54 55 59 62 59 60 66 75 85 90 91 95 98 91 81 76 74 75 79 83 78 58 31 15 16 23 24 21 23 47 79
6 6 7 7 9 10 10 9 11 11 11 12 14 15 16 16 15 15 15 15 15 15 15 15 15 16 17 17 18 18 19 19 21 21 22 23 23 25 26 27 29 30 31 33 35 38 40 41 43 48 51 56 58 55 53 55 57 57 58 62 65 65 68 73 81 90 97 99 94 84 83 85 80 76 79 80 77 63 36 15 14 17 17 17 20 30 56 73
6 7 7 7 9 10 10 10 11 11 12 13 14 15 16 16 15 15 15 15 14 15 15 15 15 16 17 17 18 19 19 20 21 21 22 23 24 26 26 27 30 32 33 35 37 40 42 43 46 50 51 51 52 51 53 55 57 60 62 62 62 65 69 74 82 89 96 102 95 78 79 86 81 78 82 79 66 43 20 13 17 15 14 18 24 36 52 48
7 7 7 8 8 10 10 10 11 12 13 14 15 15 16 15 15 15 15 15 14 14 15 15 16 16 17 18 18 18 19 20 21 22 23 23 25 26 27 28 31 33 34 37 39 41 44 46 49 51 50 47 47 49 53 56 58 60 59 56 59 64 70 76 82 84 90 99 93 80 80 81 75 77 76 60 42 25 14 14 14 12 15 21 25 31 32 19
6 7 7 8 9 10 10 10 11 12 13 15 15 16 16 15 14 14 14 14 14 15 16 16 16 17 17 18 19 19 20 21 21 23 23 24 26 26 27 29 32 34 35 38 40 43 45 48 52 55 49 42 44 50 53 55 56 54 54 57 61 65 71 78 82 83 87 88 82 79 78 70 71 79 61 29 15 14 13 12 11 11 16 20 21 21 14 10
5 6 7 9 11 11 11 11 11 12 14 15 15 15 15 14 14 14 13 14 14 15 16 16 17 17 18 19 20 20 21 22 22 23 24 25 26 27 28 30 32 34 36 39 42 44 47 50 53 58 52 41 43 50 50 51 52 51 55 60 61 65 72 78 82 83 83 80 76 75 74 73 77 66 33 9 9 13 11 10 11 12 16 18 16 11 11 24
5 6 7 9 11 11 11 11 12 13 15 15 16 15 14 14 14 14 14 14 14 15 16 17 17 18 18 19 20 20 22 22 23 24 25 26 27 28 29 30 32 35 37 41 43 44 49 52 52 57 57 46 44 50 49 47 48 52 58 62 66 74 80 81 83 82 79 77 74 73 80 88 76 41 11 7 12 11 10 11 11 13 16 16 11 11 27 56
5 7 8 9 11 11 11 11 12 14 15 16 16 14 14 13 13 14 14 14 15 16 17 17 17 18 18 19 20 21 22 23 23 24 25 26 28 29 30 31 33 37 39 42 45 46 50 52 51 55 59 49 46 53 51 45 51 58 62 67 74 80 82 80 78 77 75 72 72 80 86 76 49 19 8 11 10 10 12 12 14 18 17 12 12 28 61 88
Wind_Speed
19 19 19 16 13 8 6 5 4 4 3 1 1 3 4 5 5 4 4 4 4 4 3 4 4 4 4 4 5 7 7 6 5 7 9 9 9 9 9 9 9 9 8 8 8 8 8 8 8 8 9 10 10 10 10 11 11 13 15 17 17 18 18 18 18 19 19 17 16 17 18 19 18 17 17 17 16 16 17 19 20 20 19 19 19 19 20 20
15 15 14 11 8 6 6 7 5 3 2 1 3 5 5 5 4 4 4 5 4 4 4 4 4 5 6 7 8 9 8 7 8 11 10 10 11 12 12 12 11 10 9 9 9 9 9 8 8 8 9 9 10 10 11 11 12 13 15 17 17 17 17 17 17 18 18 18 18 18 17 17 16 15 16 16 15 15 17 17 18 17 16 16 16 17 18 19
14 13 11 9 8 8 7 6 3 2 1 3 4 6 6 4 4 5 5 5 4 4 4 4 5 7 8 8 8 9 9 10 12 12 11 12 13 13 13 13 12 11 10 10 10 10 9 9 8 8 8 8 9 10 12 13 14 14 16 17 17 17 17 16 17 17 17 17 17 16 15 15 14 15 15 16 16 16 17 17 16 16 15 15 16 16 17 19
13 13 11 9 9 8 6 4 2 2 2 3 4 6 6 5 5 5 5 5 5 5 5 6 7 8 9 9 7 7 9 11 13 12 13 14 14 13 13 12 12 12 12 12 12 12 11 10 10 9 8 8 9 11 12 13 14 15 15 16 16 16 16 16 16 15 15 15 15 15 15 16 16 17 17 18 19 18 18 17 17 16 16 16 17 18 18 19
14 12 10 9 8 6 4 3 2 3 3 3 4 6 6 5 5 5 5 6 6 7 7 8 8 8 10 10 9 10 9 10 13 13 13 14 14 14 14 13 13 13 13 13 13 14 13 12 11 11 10 9 10 11 12 13 14 15 15 16 16 16 16 15 14 13 13 13 15 17 19 19 19 20 20 20 21 21 20 18 18 18 18 18 18 19 19 20
14 11 9 7 6 4 3 3 3 3 3 3 4 5 5 5 5 6 7 8 8 8 9 8 8 8 10 10 11 14 13 10 12 12 13 14 15 15 14 13 12 12 12 12 13 14 14 14 13 12 11 11 11 11 13 13 14 15 16 16 15 15 14 14 13 13 14 16 18 20 21 21 21 22 22 23 24 24 21 19 21 20 19 19 19 19 20 21
13 11 8 6 5 4 3 3 3 3 3 3 4 4 5 5 7 8 9 9 9 9 9 9 9 10 11 11 12 15 14 11 12 13 14 14 14 14 14 13 12 13 12 12 13 13 14 14 14 13 12 12 12 12 13 14 15 16 16 16 15 14 14 14 15 15 16 18 20 21 21 21 21 22 23 25 26 26 22 22 24 21 20 20 20 20 21 23
12 10 7 5 4 4 3 3 3 2 3 3 4 4 5 7 8 9 9 9 9 9 8 9 10 12 12 12 13 14 12 12 12 13 13 13 13 13 12 12 12 12 12 12 12 12 13 13 13 13 13 12 12 13 14 15 16 17 16 16 15 14 15 16 17 17 18 19 20 21 21 21 21 21 24 26 27 25 24 24 24 21 21 21 21 21 23 25
11 8 5 5 4 3 3 3 2 3 4 5 5 6 7 8 8 8 9 9 9 9 9 10 10 11 12 12 14 13 12 13 13 13 12 12 12 12 12 12 12 12 13 13 12 13 13 13 13 13 13 13 13 13 15 16 15 15 15 15 14 15 17 19 19 20 21 20 21 22 21 21 22 22 24 25 26 25 25 24 23 22 23 23 23 24 26 28
10 7 5 5 4 3 2 3 4 5 6 6 7 8 8 8 8 9 9 9 9 10 10 9 9 10 11 14 14 13 13 13 12 12 12 12 12 12 12 12 13 13 13 13 14 13 13 13 13 13 12 12 13 14 16 15 14 14 14 14 15 16 18 20 21 21 21 21 23 23 24 24 24 23 23 25 25 25 24 23 24 25 25 25 26 28 30 31
8 6 5 4 4 2 2 4 5 6 7 8 8 8 7 8 9 9 9 10 11 10 10 9 9 11 13 14 11 10 12 12 12 12 12 13 13 13 13 14 13 13 13 14 14 13 14 14 13 12 12 12 13 15 15 14 14 15 15 15 16 18 18 19 20 21 22 23 25 26 27 25 22 22 25 25 25 25 26 27 29 29 28 29 30 31 31 32
7 6 5 4 4 3 4 6 7 8 9 9 8 8 8 9 9 10 11 12 11 11 11 12 12 13 13 9 8 9 11 12 12 12 13 14 15 15 15 15 14 13 14 14 14 13 14 14 14 13 13 13 14 14 14 14 15 16 17 17 18 17 15 17 19 20 23 24 24 26 28 25 20 23 26 24 25 27 31 33 33 31 30 31 31 31 31 32
6 6 5 5 4 5 7 9 9 10 10 10 9 9 10 10 10 11 11 11 11 11 12 12 11 12 11 7 8 11 11 12 13 13 15 16 16 16 15 15 15 15 15 16 16 15 14 15 15 15 15 15 15 15 15 15 16 18 20 20 20 18 15 16 20 22 23 23 24 25 29 28 22 25 26 24 27 32 34 34 31 30 31 32 32 31 32 32
7 7 6 6 7 9 10 10 11 10 11 11 11 11 11 11 10 10 11 11 11 11 10 10 9 10 11 9 10 12 13 14 15 16 17 17 16 15 14 15 16 16 17 18 18 17 17 18 17 17 17 16 16 17 16 16 18 20 21 19 19 22 22 21 24 25 24 24 27 26 28 31 29 29 27 27 34 38 35 30 29 30 31 32 32 32 32 32
8 7 8 9 11 12 12 12 11 11 12 12 12 12 12 11 11 11 11 11 10 8 8 8 9 10 10 11 13 14 16 16 16 16 16 16 16 15 15 17 17 17 18 18 18 17 17 17 17 16 16 16 18 18 17 19 20 19 21 22 22 27 29 27 27 27 26 28 30 26 28 34 34 31 30 34 39 38 33 28 28 31 31 32 33 33 32 32
9 9 10 12 14 14 13 13 13 13 13 13 13 13 13 13 13 12 12 12 11 10 8 7 10 11 10 13 16 14 13 14 15 15 15 16 15 15 16 17 17 17 17 17 17 17 17 17 16 16 16 18 18 18 19 20 18 17 21 25 26 29 33 33 30 26 27 30 29 26 31 37 36 35 38 40 36 33 30 28 29 31 32 32 32 33 32 31
11 12 13 15 15 15 15 14 15 15 14 14 14 14 14 13 12 10 10 10 12 13 13 11 10 11 11 13 13 10 10 13 14 15 16 16 16 16 17 18 18 17 17 18 18 17 18 16 15 15 16 18 18 19 19 17 19 23 24 26 29 32 35 38 35 29 30 33 31 31 36 39 39 43 46 41 32 28 27 27 29 31 32 33 32 31 31 31
13 14 15 15 15 15 15 15 15 15 15 15 15 15 14 13 11 9 9 11 12 13 15 15 12 10 12 12 12 12 13 14 15 17 17 15 17 16 16 17 17 16 17 18 17 17 16 15 15 15 17 18 20 21 19 16 20 25 27 30 34 37 39 38 35 32 33 35 35 37 40 42 45 49 47 39 29 25 24 25 28 30 32 32 31 31 31 33
14 15 15 15 16 16 15 15 15 15 15 15 14 13 13 13 12 11 12 12 12 14 16 17 15 14 14 14 14 16 16 15 17 19 18 16 16 16 16 18 17 17 17 18 19 19 19 18 18 20 22 23 23 23 20 18 20 23 26 30 35 41 43 38 34 32 33 38 40 41 43 47 49 48 42 34 26 21 22 24 27 30 32 31 31 32 33 35
14 14 14 15 15 15 15 16 16 16 15 14 13 13 13 13 12 12 11 10 13 19 19 18 19 18 16 14 15 16 16 17 18 19 16 15 15 15 16 17 17 17 18 21 23 24 22 21 23 25 23 22 22 21 21 21 22 24 27 31 35 42 44 40 35 32 33 39 43 42 45 48 46 42 35 28 23 20 20 23 26 29 30 31 32 32 34 34
13 13 14 15 15 15 15 16 16 16 15 14 15 15 14 13 12 13 11 12 17 21 21 20 19 18 15 12 12 15 18 17 17 16 14 13 14 15 16 18 19 20 23 24 24 24 22 23 26 24 21 22 21 22 24 24 25 27 28 32 37 40 43 42 35 33 37 39 42 44 44 42 36 32 29 26 22 19 19 22 25 28 29 30 31 32 33 33
12 13 14 15 15 15 15 15 15 15 14 14 15 13 13 14 15 15 14 16 19 20 21 20 18 16 15 11 10 13 15 13 11 12 12 13 15 18 19 21 23 24 24 22 24 25 23 25 26 22 22 22 22 25 26 25 26 28 29 33 38 38 42 44 39 38 39 40 44 43 35 30 28 28 27 24 21 19 19 21 24 27 28 29 31 32 33 32
12 13 15 16 16 16 16 15 13 12 10 10 9 7 7 10 13 15 16 17 19 19 19 18 16 16 15 12 10 12 13 13 11 13 16 18 19 20 22 23 24 24 23 23 26 26 24 27 26 23 23 21 23 27 27 28 27 26 28 34 38 38 37 41 44 43 41 42 40 32 26 27 28 26 24 22 21 20 20 22 24 25 27 29 31 32 32 32
13 14 15 16 16 16 15 13 11 9 7 5 4 3 3 3 6 10 14 18 19 18 16 16 17 16 15 15 13 11 15 18 16 18 20 20 21 22 23 24 24 25 23 24 26 24 25 27 24 23 21 20 25 28 28 30 30 27 29 32 36 38 36 38 43 44 44 40 31 24 24 26 25 21 20 21 20 21 22 23 24 25 28 30 31 32 32 31
14 14 15 15 15 14 11 9 6 4 3 3 3 3 2 1 2 5 9 14 18 18 16 16 17 18 17 17 16 13 15 19 19 21 22 22 23 23 23 22 24 26 22 24 25 22 25 25 21 21 18 20 27 28 27 27 31 32 32 33 37 38 38 39 40 41 41 33 25 26 19 15 23 24 22 22 21 22 23 24 25 27 29 31 31 31 30 29
15 14 14 13 11 9 7 6 3 2 2 2 2 2 3 2 2 2 3 8 14 17 17 16 16 18 18 17 18 16 15 18 22 21 21 22 22 23 23 22 25 25 21 23 23 21 24 21 19 18 16 21 27 25 23 24 30 34 34 37 38 37 38 40 39 36 33 26 27 29 15 10 24 28 23 24 24 24 25 26 28 29 30 31 30 30 29 29
14 13 12 10 7 5 5 3 2 1 1 2 2 2 2 3 3 1 1 2 10 16 18 17 15 17 18 18 19 17 15 18 20 19 19 21 22 24 23 21 24 24 22 23 23 23 22 18 18 17 16 23 26 22 22 25 29 33 37 39 38 38 37 37 37 31 27 27 27 23 14 13 20 23 21 22 24 26 28 28 30 31 31 30 29 28 28 29
12 11 10 7 5 4 3 2 1 1 1 2 3 3 2 3 3 2 2 2 7 12 15 16 15 16 19 19 19 18 17 18 18 18 20 21 21 23 22 20 23 23 21 23 24 25 22 18 17 16 19 24 22 20 22 25 29 35 37 38 38 37 36 35 31 25 24 23 17 14 11 10 16 23 22 21 25 27 29 31 32 33 31 28 27 27 29 33
11 9 7 5 3 2 2 1 1 2 2 2 4 3 2 3 4 3 4 3 6 10 11 14 14 15 17 18 17 16 18 19 18 19 21 21 21 23 22 21 23 21 19 22 24 23 20 18 16 17 24 25 21 20 24 27 30 35 36 37 39 37 39 35 23 25 28 13 5 14 15 7 13 26 25 20 24 25 27 31 33 32 29 26 27 29 35 41
8 6 4 3 2 2 1 1 2 3 3 4 6 5 3 4 3 2 3 2 5 9 10 12 13 14 14 15 14 15 16 18 19 18 19 19 19 22 20 19 22 18 16 23 25 22 21 17 15 21 26 24 22 24 27 28 30 33 33 37 42 42 42 31 22 30 25 6 8 21 24 16 11 23 25 19 22 24 25 28 29 28 25 25 30 36 44 53
5 3 2 2 2 2 1 2 3 3 3 3 5 7 6 4 1 2 3 1 4 7 9 11 13 14 15 15 16 16 16 18 18 16 17 18 18 22 23 24 29 23 21 30 30 26 23 16 17 26 26 24 27 32 33 31 33 33 31 37 41 41 38 24 21 27 11 6 19 25 29 23 10 20 28 25 27 28 26 25 24 23 24 29 37 46 55 61
2 2 2 2 2 1 1 2 3 3 3 3 3 4 5 4 5 6 4 1 3 6 8 10 13 15 16 17 18 17 16 19 21 19 22 24 24 29 31 31 35 29 27 35 34 30 25 17 20 27 25 22 29 39 39 36 36 31 31 37 29 20 20 12 11 14 4 11 26 29 30 22 15 26 31 29 34 32 28 24 21 23 29 36 47 56 63 64
1 0 1 1 2 2 3 3 2 3 3 3 3 3 3 4 5 6 6 4 4 5 7 10 13 14 15 16 18 18 17 20 23 22 24 26 25 29 30 30 33 28 26 31 32 32 27 19 23 27 21 19 29 37 36 36 35 26 28 33 18 5 8 6 6 9 8 17 32 35 27 18 19 26 27 31 37 33 30 25 22 29 38 48 58 63 63 62
1 1 2 2 3 3 3 3 3 3 3 4 4 4 5 6 6 6 8 8 6 5 6 10 13 13 15 16 18 20 19 20 23 22 22 24 24 27 29 30 32 30 29 28 27 28 21 15 23 27 19 18 28 30 28 32 29 21 27 27 16 12 11 7 7 7 10 20 31 31 18 12 19 26 30 35 34 31 29 26 28 40 50 59 64 63 61 61
1 2 3 3 3 3 3 3 4 3 4 4 4 5 6 6 7 7 7 8 8 8 6 8 12 12 14 16 18 20 19 19 23 22 22 25 25 27 30 31 32 32 31 28 24 23 19 18 23 22 16 19 28 29 27 29 24 22 30 25 20 23 19 16 16 18 21 19 18 19 15 17 26 34 36 33 29 28 26 28 41 52 60 64 63 62 61 62
3 3 3 4 3 3 3 4 5 5 6 6 6 6 7 8 8 7 7 8 9 10 8 7 11 12 13 16 18 20 19 19 22 22 22 24 24 26 29 30 32 32 31 27 23 21 20 25 25 18 17 25 29 27 25 24 22 23 28 27 27 26 18 15 18 24 24 15 9 12 16 26 33 31 28 25 25 27 29 42 55 58 61 61 60 61 63 67
4 4 4 4 4 4 4 4 4 4 5 5 6 8 11 11 10 8 8 9 9 11 11 9 11 14 15 17 18 19 18 18 21 22 22 23 23 24 27 29 31 30 30 27 23 21 22 30 29 19 22 31 29 26 24 20 20 22 24 28 29 23 17 13 11 13 13 8 10 15 21 29 26 18 23 28 28 32 42 54 57 56 57 57 58 63 68 73
4 4 5 5 5 5 4 4 4 4 5 6 8 10 12 12 11 10 9 9 10 11 12 12 12 15 16 17 19 20 19 18 21 23 22 22 22 23 25 28 29 29 30 27 24 24 24 28 28 23 27 33 28 25 26 24 21 20 23 28 26 18 16 17 10 7 7 7 10 19 25 23 17 20 30 33 34 43 52 56 55 54 54 56 63 70 73 71
5 5 6 5 4 4 3 4 4 5 7 7 8 11 11 11 11 11 10 10 10 11 13 13 14 15 16 18 19 21 21 19 21 23 22 22 23 21 23 27 28 28 29 28 26 27 24 19 20 27 34 34 29 27 27 25 21 21 26 30 27 19 17 20 16 9 8 7 8 17 20 15 20 31 31 31 42 53 56 55 53 53 55 63 72 74 71 65
6 6 5 5 4 4 2 3 4 5 8 8 8 11 12 11 11 11 10 11 11 11 12 13 15 16 16 18 19 21 21 18 20 23 21 23 24 21 23 26 27 27 27 28 28 29 26 16 19 33 39 33 28 24 18 18 19 24 31 32 28 26 26 28 23 14 8 5 7 10 10 18 31 32 27 38 52 57 56 52 51 55 64 72 74 71 66 62
5 5 5 5 5 4 3 4 5 7 10 10 10 12 12 11 11 11 10 10 11 11 13 14 15 17 17 18 19 21 21 17 19 21 21 23 23 21 23 25 27 27 26 28 29 30 30 21 23 37 42 35 30 23 16 19 24 29 35 34 29 29 31 23 15 17 16 12 13 10 8 23 35 29 33 50 57 56 53 50 55 65 72 74 71 66 63 62
5 5 6 6 5 5 4 5 8 9 10 11 11 12 12 12 11 11 10 10 11 12 13 14 15 16 17 18 19 21 20 17 18 20 21 23 23 22 24 25 26 26 25 27 29 32 32 26 28 37 39 35 32 28 27 30 34 37 37 35 32 32 32 19 8 19 25 21 23 18 12 24 33 33 46 58 56 52 51 54 65 73 74 72 67 64 63 59
5 5 6 6 5 6 6 7 8 9 10 10 11 11 11 12 11 11 11 10 11 12 13 14 15 16 17 18 19 21 21 17 17 21 22 22 23 24 24 25 25 24 24 25 27 30 29 25 33 43 41 38 36 32 31 33 37 40 37 36 35 33 33 24 16 22 22 19 23 15 10 24 40 47 57 59 52 50 54 64 72 73 72 69 66 65 62 51
5 5 6 6 5 5 7 8 7 7 9 10 11 11 11 11 11 11 11 11 11 13 13 14 15 16 17 18 19 20 20 18 17 20 22 23 24 24 24 25 24 22 24 25 27 28 24 23 30 33 30 34 34 30 33 38 39 39 37 35 35 34 31 26 26 26 16 17 25 14 11 33 53 59 61 55 49 55 64 71 72 70 69 67 66 64 56 47
5 5 6 6 6 5 7 9 8 6 8 9 10 10 10 11 11 11 11 11 12 13 13 14 15 16 17 18 19 20 20 19 18 19 22 24 24 24 24 24 23 22 24 25 26 26 24 23 24 18 11 14 18 21 31 40 40 39 38 36 34 33 27 24 28 25 16 23 31 21 24 48 63 62 58 53 54 65 72 73 71 69 67 66 64 59 53 52
5 4 5 6 7 6 5 8 9 7 7 8 9 9 10 10 10 10 10 11 11 12 14 14 15 16 17 17 18 19 21 20 19 20 22 23 24 25 25 24 23 22 24 26 26 25 25 24 22 19 17 18 25 29 31 33 35 39 41 37 32 27 23 25 29 25 23 30 34 34 41 55 63 60 55 56 64 72 74 72 71 70 68 65 61 55 53 55
4 4 3 3 6 5 5 7 9 8 7 7 8 9 10 9 9 9 9 10 11 12 13 14 15 15 16 17 17 19 20 19 19 21 21 22 24 24 24 24 22 21 25 27 26 26 27 26 25 26 28 29 32 32 30 30 33 37 38 34 29 25 25 30 31 30 32 28 32 47 55 55 57 56 54 62 71 73 72 71 69 68 66 61 56 55 56 56
4 3 2 2 3 5 5 7 8 8 7 7 7 8 9 9 9 9 9 10 11 12 13 13 14 15 15 16 17 18 19 18 19 20 20 21 23 23 24 24 21 22 26 27 28 29 28 28 29 32 36 35 31 29 32 34 35 36 32 27 26 26 29 33 34 35 36 29 35 53 57 53 54 55 60 69 72 70 70 70 68 67 61 57 56 57 57 56
4 3 3 3 4 4 5 6 7 8 7 6 6 7 8 9 9 9 9 10 11 12 12 13 14 14 15 16 17 18 18 19 20 21 21 22 22 23 24 22 21 24 27 27 29 29 28 30 31 34 40 38 32 31 36 38 37 32 23 21 26 28 29 34 36 37 38 40 45 51 51 50 52 56 66 73 70 69 70 69 68 65 59 56 58 57 56 55
5 4 3 3 3 4 5 6 6 7 7 5 5 6 7 8 8 8 9 10 10 11 12 13 13 14 15 16 17 18 19 20 21 21 21 21 22 23 23 21 21 24 27 28 29 29 30 32 32 34 40 38 35 36 40 39 31 19 16 24 31 31 32 35 38 41 45 49 51 49 47 48 53 61 70 72 70 70 70 69 68 63 58 58 58 55 53 53
4 2 1 2 2 4 5 6 6 6 6 5 5 6 7 7 7 8 9 9 10 10 11 12 13 14 15 16 17 18 19 19 20 21 21 20 21 22 22 22 22 23 26 27 28 29 31 33 36 36 37 38 38 39 43 39 21 11 21 31 29 29 35 38 41 46 49 51 52 49 46 50 60 68 71 71 71 71 70 69 65 60 58 58 56 54 53 53
3 1 0 1 3 4 5 5 5 5 5 4 4 5 6 7 7 7 8 8 9 10 10 12 13 14 14 15 17 18 18 19 19 19 19 19 20 20 20 21 21 23 27 27 28 30 31 34 39 35 34 39 39 39 43 36 17 14 26 28 24 28 38 44 50 54 52 50 47 44 47 57 67 70 70 72 73 70 69 67 60 57 58 57 54 53 53 53
Wind_Direction
135 139 145 144 140 142 151 179 192 191 199 173 67 10 356 352 355 5 15 16 10 6 3 360 4 6 8 16 27 36 37 32 30 33 29 24 23 22 19 16 13 13 12 9 2 357 350 344 339 329 321 311 303 296 293 286 275 270 268 271 273 275 277 279 280 279 280 282 279 277 278 279 281 280 279 279 279 281 286 289 288 285 279 274 269 264 261 260
151 144 146 159 167 171 173 181 188 194 188 77 24 6 355 348 359 12 14 14 11 11 13 18 25 32 35 38 46 46 40 37 41 37 28 25 29 28 26 21 16 13 11 12 8 2 353 345 339 329 323 312 298 289 285 281 278 277 274 275 280 282 284 284 284 283 283 284 283 283 284 285 287 286 284 285 286 290 295 294 289 284 280 276 271 265 260 258
165 165 166 174 173 169 176 182 182 174 95 32 15 3 355 357 12 12 17 20 21 26 31 39 46 48 47 49 52 46 39 39 42 40 33 34 35 32 30 25 19 15 10 12 11 7 358 347 338 329 324 313 298 287 282 280 280 281 281 282 285 287 290 290 286 285 285 285 285 285 288 292 293 291 291 292 291 296 302 299 293 288 283 281 277 272 266 261
164 169 170 167 165 170 174 167 142 97 45 22 7 358 359 12 16 18 28 38 50 52 48 51 53 54 51 49 50 45 42 42 45 45 39 38 36 32 30 26 20 14 10 9 7 4 357 349 340 333 328 315 302 293 286 283 283 284 285 288 290 291 292 292 288 286 285 283 283 283 288 293 293 292 292 292 294 300 306 302 296 292 288 287 282 277 273 268
163 167 166 162 164 165 152 122 86 64 36 14 357 357 6 17 24 38 53 68 74 67 62 61 58 58 53 49 55 57 51 45 44 41 39 37 34 29 25 20 16 13 7 2 359 357 351 344 338 332 330 320 308 301 295 288 287 289 290 292 294 292 291 288 283 280 280 280 280 282 286 290 290 291 290 291 295 302 307 303 298 294 290 291 287 279 274 271
163 166 166 163 159 144 119 93 70 48 24 10 2 8 21 33 50 64 75 79 78 74 70 67 62 60 60 59 62 59 53 46 40 35 35 33 30 26 19 9 5 6 360 355 354 350 344 340 335 332 330 323 313 308 303 296 294 294 297 297 294 291 289 285 282 283 286 286 286 287 290 292 292 293 293 295 297 302 306 301 298 294 289 292 289 282 276 271
163 167 169 160 144 126 107 81 50 33 26 21 22 33 48 64 74 79 81 80 77 74 70 69 69 66 67 62 57 56 50 42 36 31 30 28 26 22 13 3 359 359 353 350 349 346 344 341 335 329 326 321 315 312 308 305 304 303 302 300 294 289 284 283 288 295 299 297 293 291 292 294 294 296 298 299 300 304 304 298 297 293 288 289 287 282 277 271
165 170 166 144 128 114 94 55 36 44 50 52 57 69 79 82 82 83 82 79 75 72 71 75 74 70 64 54 51 51 41 33 29 25 25 23 22 19 10 4 2 359 352 348 347 347 345 340 334 328 325 322 318 316 313 311 309 306 303 298 292 284 281 287 293 298 302 301 296 293 292 291 293 300 303 302 302 303 299 296 296 291 287 286 283 279 271 267
168 166 150 131 120 106 76 42 56 78 80 85 90 92 89 84 82 81 80 77 74 72 74 74 74 71 61 51 44 40 32 26 23 21 21 21 21 17 10 7 5 1 356 352 350 350 346 339 335 329 326 324 321 318 315 313 309 305 302 296 293 286 285 290 292 296 300 301 300 297 295 293 298 306 307 302 299 297 296 297 295 290 287 283 279 274 266 264
167 156 138 126 115 100 59 57 89 96 100 103 101 96 90 83 78 79 80 80 76 71 72 72 70 65 56 46 32 23 23 20 19 20 20 23 23 16 12 10 10 5 358 356 354 350 345 340 335 330 329 326 324 321 318 314 308 306 302 298 298 293 292 294 296 298 300 301 303 301 300 300 303 308 306 301 298 297 298 297 292 289 285 279 274 269 265 262
161 147 131 118 112 93 67 92 105 108 111 107 102 96 88 81 77 81 85 85 80 76 75 68 57 47 44 38 19 13 22 18 19 21 19 22 20 16 15 12 10 5 0 359 356 349 344 341 335 331 331 328 327 325 321 316 310 307 302 300 305 304 302 302 303 301 299 301 303 303 304 303 302 304 302 299 297 297 297 294 291 288 281 275 270 266 263 261
154 139 124 119 114 95 102 114 115 114 110 104 100 95 90 84 82 87 89 88 84 76 67 56 46 39 35 24 11 23 28 24 22 22 20 20 19 17 12 8 5 1 1 0 356 349 344 341 335 331 333 332 331 327 319 313 310 308 301 298 302 304 306 308 306 304 303 303 307 311 307 304 304 303 299 294 293 295 295 292 289 283 276 271 267 262 260 258
145 135 128 124 114 112 120 120 118 115 106 101 97 95 93 88 88 92 90 86 76 64 56 48 42 40 30 14 25 33 33 29 25 22 20 17 17 15 8 3 0 357 359 358 353 350 344 341 336 333 336 334 329 324 317 312 311 307 299 296 296 295 299 310 312 310 309 307 314 321 310 306 312 306 299 297 298 300 298 292 284 275 270 266 262 259 258 257
140 135 129 123 120 124 125 121 118 112 105 100 96 94 91 88 89 86 80 73 63 56 55 48 40 38 30 28 38 38 34 28 24 21 17 13 10 8 5 1 359 358 359 356 353 350 345 342 338 336 338 332 323 319 314 311 312 306 299 298 301 305 308 318 323 319 315 311 317 321 308 308 315 307 302 303 304 304 299 289 276 270 265 262 260 258 258 257
138 130 125 125 127 128 124 120 115 108 106 100 96 93 88 87 82 75 71 65 58 54 56 49 40 37 32 34 39 34 29 25 22 19 13 10 6 3 4 1 0 0 357 355 353 348 344 342 338 337 333 323 320 316 310 310 309 306 310 310 311 315 314 318 326 321 316 315 317 317 308 311 314 307 306 309 306 300 293 281 270 266 261 260 259 257 257 257
131 128 130 131 131 128 122 115 109 106 104 99 96 93 87 83 76 73 70 64 63 55 53 52 43 42 35 36 38 32 25 23 21 16 11 9 4 3 5 1 1 1 357 354 352 350 347 342 338 336 328 323 320 314 310 312 310 310 320 318 316 320 318 320 327 323 318 320 321 318 313 314 314 310 310 311 304 293 286 274 265 262 258 257 256 255 257 260
133 135 136 135 133 127 119 113 108 106 103 100 98 91 85 79 73 72 69 67 65 57 55 53 47 45 41 41 41 33 28 25 21 16 11 8 4 4 4 359 358 358 357 356 354 351 343 338 340 336 328 324 319 319 324 327 326 326 327 324 322 325 324 325 329 326 323 323 324 323 319 317 315 313 312 311 302 289 280 268 260 257 254 254 253 256 260 263
138 139 137 135 131 125 119 115 111 107 104 101 95 88 84 78 74 69 65 65 61 59 57 51 51 52 46 46 40 30 28 25 22 18 13 9 5 3 1 358 358 359 359 358 354 348 344 346 345 338 334 333 333 339 348 345 335 332 331 328 328 327 326 327 329 326 323 322 325 326 323 319 316 313 312 309 302 288 274 262 256 253 251 251 254 258 262 265
138 139 136 132 128 125 122 118 114 109 105 100 94 92 85 76 71 64 67 69 63 63 58 48 49 49 44 39 31 27 23 20 19 14 9 7 3 360 360 0 0 1 360 358 356 353 355 354 347 345 348 348 347 348 350 342 332 329 328 327 328 327 324 326 329 325 323 323 326 327 323 319 314 311 309 307 302 288 272 259 252 248 248 250 254 259 262 263
139 139 135 132 132 131 126 121 117 111 106 101 94 89 80 73 67 63 72 77 64 60 55 47 42 40 36 30 26 22 20 21 19 10 3 3 3 1 0 1 2 3 2 1 0 357 355 352 351 355 356 351 348 345 341 335 330 327 325 325 326 325 322 325 329 325 324 324 324 324 320 315 310 308 306 305 304 291 271 256 249 247 247 250 254 258 261 262
139 139 138 140 140 134 127 122 119 116 112 104 92 83 76 75 69 63 61 62 60 56 52 45 39 37 32 28 26 21 18 15 9 5 3 4 7 6 3 4 6 8 6 3 0 356 354 353 356 358 355 349 346 342 337 333 329 326 323 323 324 324 322 323 326 325 325 323 320 320 316 310 306 306 305 304 301 287 268 253 247 246 247 252 257 260 261 262
136 137 140 142 139 131 123 120 119 118 114 105 96 86 79 75 68 63 55 57 59 54 50 44 38 35 30 32 31 27 25 13 1 2 9 15 14 11 8 6 8 9 5 1 359 358 356 356 357 355 351 349 345 340 334 328 326 321 320 324 324 326 325 323 326 327 325 321 319 319 315 306 305 306 304 300 292 278 262 249 243 246 250 255 260 262 262 263
132 135 135 136 133 127 124 122 119 114 107 102 99 92 86 77 68 62 54 55 56 52 50 44 39 35 31 33 32 30 28 21 17 14 19 21 16 13 11 6 6 5 2 0 360 360 358 355 353 349 348 346 342 337 329 322 321 319 322 326 326 328 327 321 324 327 323 320 320 319 311 304 305 304 298 290 282 271 257 247 246 248 253 257 261 263 263 265
132 133 132 132 131 129 127 123 118 111 98 88 83 73 84 92 76 62 52 51 50 48 45 40 38 35 32 33 32 29 23 19 18 17 21 19 14 15 10 5 3 1 2 2 360 359 357 352 347 344 343 341 339 334 326 322 322 323 328 330 327 329 326 319 321 324 322 321 323 322 314 307 308 306 294 284 273 265 255 248 248 251 255 258 260 262 263 265
131 131 132 133 132 131 127 120 116 110 83 56 54 56 81 131 116 73 53 47 43 40 38 35 32 29 29 31 30 28 21 17 16 17 19 15 13 12 8 6 2 359 3 2 359 357 353 347 340 339 334 336 338 332 327 325 323 326 332 333 330 328 325 320 322 323 320 322 328 326 320 309 308 303 292 285 275 263 257 251 251 253 256 258 259 262 263 268
132 133 134 134 134 130 124 121 121 91 42 38 51 74 84 84 115 116 60 40 34 32 31 29 27 26 26 28 29 27 17 14 16 16 14 11 11 8 7 8 1 358 1 360 357 353 348 343 336 337 332 334 337 333 330 328 325 329 333 332 331 328 324 323 324 321 315 317 325 323 308 280 296 297 292 288 278 267 262 257 256 257 258 258 260 264 268 276
133 133 134 135 135 130 122 116 109 67 36 50 56 69 73 68 82 107 201 18 16 19 22 21 22 23 23 27 29 26 19 14 14 14 11 10 9 6 6 5 0 358 358 357 355 350 349 344 338 337 332 335 339 338 335 331 327 330 332 331 330 329 325 326 325 319 313 314 324 328 308 275 286 298 304 293 280 276 269 261 261 263 262 262 264 271 279 289
131 131 133 133 130 120 106 92 85 45 47 54 44 51 70 82 85 71 97 77 8 9 14 16 18 19 19 24 26 25 23 16 11 10 11 10 8 5 4 2 1 357 356 358 354 351 352 348 345 341 333 339 347 344 336 332 328 330 333 332 331 330 329 331 328 322 323 315 320 345 329 284 285 304 311 295 285 283 273 266 266 265 264 266 273 285 296 304
130 132 129 122 108 84 75 65 50 55 68 49 31 40 104 112 102 86 91 82 14 8 12 15 18 18 17 20 20 21 22 17 12 11 9 7 5 3 2 358 357 355 358 2 357 353 354 350 351 346 338 343 351 347 339 333 332 334 336 334 331 332 334 338 336 333 334 316 309 354 343 321 301 307 311 297 289 289 277 270 268 265 266 275 288 301 311 317
128 123 106 84 50 39 49 47 61 79 84 65 51 60 104 125 123 94 84 51 7 8 12 15 18 22 23 20 18 20 22 18 14 13 7 4 2 360 359 355 357 0 360 1 1 360 358 357 357 349 344 347 348 347 341 336 339 340 340 336 332 334 339 342 337 337 341 320 330 342 334 331 313 310 318 308 300 301 291 276 265 264 272 289 306 316 321 324
116 90 62 22 4 13 34 65 84 99 105 93 72 67 77 94 103 86 88 28 1 4 7 14 17 21 23 21 20 19 20 16 12 11 7 5 1 357 360 2 4 7 359 358 2 4 1 1 359 352 349 348 345 342 340 343 347 344 342 344 339 336 341 342 332 338 348 293 321 330 326 325 300 304 316 313 311 310 298 281 267 272 291 307 318 324 327 329
92 48 2 346 4 30 66 95 118 126 120 119 99 74 71 75 69 72 82 21 354 2 8 16 17 20 20 17 18 16 15 12 9 8 7 7 3 360 4 6 7 7 358 355 357 360 3 3 358 354 350 347 344 341 340 344 348 344 344 350 348 338 339 340 329 335 310 288 316 322 321 315 289 301 311 313 314 310 298 285 278 295 310 318 324 328 330 331
91 45 24 50 69 73 81 99 132 144 130 126 115 93 88 92 76 67 68 52 22 14 16 19 17 19 18 15 15 14 13 11 9 10 9 7 3 2 6 7 9 9 360 355 355 356 360 1 355 353 350 348 346 343 340 340 345 348 350 352 352 341 333 325 316 319 296 301 312 316 315 301 295 308 313 313 312 307 298 291 296 315 322 324 328 330 331 331
150 117 94 92 94 89 81 90 120 132 128 126 117 106 104 103 98 85 70 56 45 33 23 21 18 15 15 15 14 13 11 9 9 11 9 5 2 3 6 6 7 7 2 0 358 355 353 349 349 349 350 347 344 345 341 338 343 348 350 350 347 342 328 300 306 309 299 307 312 315 313 295 305 315 315 313 311 304 297 299 314 325 327 329 330 329 327 325
116 98 93 96 104 100 87 94 112 121 126 125 120 125 121 107 104 97 73 57 49 40 33 26 20 17 15 15 14 13 11 8 7 9 8 5 4 4 4 4 3 3 4 2 358 353 340 333 345 347 347 347 344 345 344 341 345 345 344 347 342 335 317 290 297 302 301 305 309 309 300 302 314 316 315 316 314 305 302 318 328 329 329 328 326 323 321 321
94 90 97 104 110 111 110 112 109 112 119 115 111 121 120 109 107 100 76 61 49 38 38 28 18 20 21 18 16 13 11 9 7 8 8 6 5 4 2 1 360 0 4 2 357 353 335 331 348 356 349 350 346 345 347 346 344 342 343 344 338 333 320 297 301 308 308 304 302 302 299 314 320 317 319 324 317 312 321 331 331 329 326 324 322 322 322 322
96 98 110 114 112 110 119 128 124 130 134 122 116 113 110 106 101 95 80 63 50 41 38 31 21 20 20 19 17 13 12 11 8 7 9 7 5 3 1 359 358 358 0 360 356 352 333 330 347 358 349 349 348 344 347 350 347 345 344 342 339 334 333 333 320 312 312 297 301 312 313 318 320 322 331 329 323 328 334 332 329 326 324 324 324 325 324 323
102 108 115 121 119 112 113 123 126 133 136 130 126 116 108 106 96 88 78 59 51 43 36 35 28 20 17 16 15 13 12 12 10 9 9 8 3 359 359 357 356 355 357 357 354 352 339 329 340 350 346 348 350 345 346 352 352 346 342 344 347 339 330 337 331 306 314 307 302 312 315 319 326 329 329 327 331 336 334 329 327 326 326 326 326 324 323 324
104 111 119 126 128 126 126 134 133 130 124 121 124 116 107 105 95 83 72 58 49 41 36 35 30 24 20 16 13 12 11 11 10 9 8 5 0 356 356 355 355 354 354 354 352 350 345 327 325 338 344 347 350 349 347 349 345 340 343 348 352 344 327 325 320 303 307 310 303 313 315 323 333 329 326 331 335 334 330 328 327 325 325 325 324 324 326 328
102 110 123 131 131 128 129 145 155 144 133 127 123 116 107 102 92 79 70 58 48 41 37 33 29 26 21 18 16 13 12 11 8 7 5 1 358 355 353 354 354 353 351 352 350 347 346 327 308 330 343 348 352 353 346 341 340 341 346 350 349 345 336 329 322 313 309 300 304 316 308 314 325 326 326 333 333 330 328 327 324 323 324 324 325 327 330 330
106 115 123 125 120 116 123 142 140 131 129 127 119 111 104 97 87 80 72 58 50 43 37 33 30 26 20 19 18 14 12 10 6 5 1 357 357 354 351 352 353 352 350 351 351 348 345 330 313 328 341 346 351 355 351 349 349 345 345 347 345 342 341 337 324 315 317 306 300 301 285 307 319 324 326 330 330 328 326 324 322 324 325 326 329 331 331 330
122 125 121 114 107 115 124 131 131 127 125 123 115 106 100 93 83 77 69 58 51 43 38 36 30 25 22 18 17 14 11 8 4 2 357 355 355 352 350 352 352 351 350 351 351 347 343 337 327 329 336 344 350 352 352 351 346 342 343 344 340 337 336 334 304 308 313 308 304 299 283 305 319 326 326 328 329 326 324 323 324 326 328 330 332 332 331 331
138 138 131 120 116 125 121 116 125 131 128 119 110 104 96 89 82 73 66 58 50 43 41 37 30 25 21 17 16 13 9 6 1 357 356 355 352 350 350 351 350 349 350 351 350 348 346 343 336 333 336 343 346 347 348 347 341 338 340 339 334 331 330 324 317 317 312 307 315 309 279 308 321 326 327 328 328 325 324 326 327 329 331 333 333 332 332 333
142 141 133 123 121 125 115 106 111 127 127 118 109 102 93 87 82 72 65 58 51 46 42 36 31 25 20 17 15 11 9 7 359 355 355 353 350 349 349 350 350 348 348 350 350 349 349 345 340 337 338 341 344 345 342 339 337 335 335 334 330 328 326 323 327 329 314 311 323 318 287 311 321 326 328 329 327 326 327 329 330 332 333 334 333 332 333 332
139 139 134 126 116 111 113 109 104 112 120 115 109 101 92 86 79 70 64 57 51 47 42 37 32 24 19 16 12 10 9 5 0 356 354 351 348 347 347 349 349 347 347 348 347 346 346 345 344 339 327 324 325 325 328 329 328 331 334 333 328 328 328 328 333 335 325 321 322 312 303 313 321 327 329 329 328 328 329 331 333 335 335 334 333 333 334 331
143 145 140 125 108 100 116 119 115 115 113 108 105 99 92 84 76 70 63 55 52 46 42 38 31 24 20 14 11 10 6 2 1 357 352 350 348 346 347 348 347 347 347 345 345 345 342 343 345 334 316 309 310 316 326 328 324 328 333 331 326 326 327 333 338 337 329 324 319 317 318 317 322 328 330 330 330 330 331 333 335 336 336 334 333 335 334 329
149 147 136 111 104 110 130 129 124 121 112 104 101 95 90 84 76 71 64 57 53 46 42 38 30 25 20 13 9 7 2 360 358 355 352 349 347 346 346 346 346 346 345 345 345 345 340 340 343 335 326 326 327 328 335 334 328 329 331 328 325 324 327 335 339 338 338 329 316 322 325 321 322 329 331 329 331 332 333 335 336 336 335 334 335 336 333 329
159 161 139 99 111 128 139 137 129 119 109 102 99 95 90 83 77 72 64 58 53 47 42 38 30 24 18 12 8 3 359 357 356 354 351 348 347 347 346 345 346 345 346 346 344 344 341 339 341 337 332 336 341 339 338 337 333 331 329 326 324 324 329 335 336 338 339 327 315 322 325 323 326 330 330 330 332 333 334 336 337 337 336 336 337 336 334 334
141 143 127 110 121 137 140 140 133 121 108 99 95 95 92 84 77 70 62 57 52 47 41 36 30 22 16 11 6 2 359 357 357 355 351 349 348 347 347 347 346 344 344 344 343 344 342 339 341 338 333 340 349 344 340 340 336 332 328 328 328 324 326 332 336 339 336 326 322 324 323 325 329 330 329 331 334 334 335 338 340 339 339 339 339 337 337 339
129 127 119 105 123 150 144 141 136 122 111 103 98 97 94 86 78 68 61 55 50 48 40 34 28 20 15 11 5 2 359 356 356 353 350 351 348 347 349 348 344 341 341 343 343 344 342 340 342 338 331 340 351 344 340 342 338 329 330 333 330 324 326 334 339 339 335 329 328 326 324 327 331 330 331 334 336 336 338 341 342 341 342 342 340 340 341 341
122 128 122 106 150 169 154 144 137 121 112 110 106 98 93 88 79 68 61 52 47 45 38 32 27 18 15 11 5 3 360 356 355 352 350 350 348 348 347 344 342 339 339 343 343 344 344 341 342 340 331 336 348 343 340 344 344 336 340 336 329 327 333 339 340 339 336 332 329 330 329 330 331 332 334 337 338 339 341 343 343 343 344 342 341 342 343 341
116 110 10 133 160 172 167 152 140 125 116 114 108 101 94 87 78 69 61 50 43 41 35 30 25 18 14 11 5 3 0 357 356 353 350 349 347 346 345 343 343 340 340 344 343 344 346 342 343 343 330 332 344 342 339 347 356 344 338 330 321 330 339 339 336 337 337 334 331 329 328 329 331 334 336 338 340 341 342 344 344 344 344 342 342 343 342 341